Location: Eimen
(51.8766°N, 9.7806°E)
Time: 03:49:26
(UTC+00:00)

Cosmos 2221 Rocket - Pass Details

Date: 12 August 2024
Orbit: 618 x 644 km, 82.5° (Epoch: 09 September)

Event Time Altitude Azimuth Distance (km) Brightness Sun altitude
Rises 01:53:51 0° 356° (N) 2,970 7.9 -16.0°
Reaches altitude 10° 01:56:25 10° 9° (N) 2,056 7.2 -15.7°
Maximum altitude 02:00:17 27° 67° (ENE) 1,259 5.8 -15.4°
Drops below altitude 10° 02:04:08 10° 125° (SE) 2,040 6.3 -15.0°
Sets 02:06:40 0° 138° (SE) 2,942 7.0 -14.7°
